User: anonymous   Login
Location: San Francisco
(37.7750°N, 122.4180°W)
Time: 01:24:37
(UTC-07:00)
Language:

GP-B - Orbit

View from above orbital plane
View from above orbital plane
View from above satellite
View from above satellite

Ground track
Ground track

The orbit data is extracted from the following two-line orbital elements,

1 28230U 04014A   18145.47575408  .00000106  00000-0  12271-4 0  9997
2 28230  89.8331 115.2258 0003075  76.3171 283.8394 14.78619101759672
Epoch (UTC): 25 May 2018 11:25:05
Eccentricity: 0.0003075
inclination: 89.8331°
perigee height: 631 km
apogee height: 636 km
right ascension of ascending node: 115.2258°
argument of perigee: 76.3171°
revolutions per day: 14.78619101
mean anomaly at epoch: 283.8394°
orbit number at epoch: 75967

The dashed part of the orbit path shows where the satellite is in the earth's shadow,  

DLR